RYR701 EGSS-EIKY

Flight info

Callsign RYR701
Flight time N/A
Altitude 38000
Route NUGBO M183 SILVA P86 DIDZA N14 OKSAW DCT BIBPE DCT FELCA DCT OFSOX DCT SLANY DCT KER
Aircraft B738/M-SDE2E3FGHIRWXY/LB1

Departure

Time 2026-05-07 19:15
Airport London Stansted Airport (EGSS)

Arrival

Time N/A
Airport Kerry Airport (EIKY)
Time Latitude Longitude Altitude Speed Heading
2026-05-07 18:39 51.89182 0.25438 348 ft 0 kts 57°
2026-05-07 18:40 51.89181 0.25438 348 ft 0 kts 57°
2026-05-07 18:55 51.89176 0.25425 348 ft 4 kts 57°
2026-05-07 18:55 51.89161 0.25388 351 ft 4 kts 57°
2026-05-07 18:55 51.89149 0.25359 358 ft 4 kts 44°
2026-05-07 18:55 51.89128 0.25340 353 ft 4 kts 355°
2026-05-07 18:56 51.89109 0.25355 353 ft 4 kts 313°
2026-05-07 18:56 51.89097 0.25376 355 ft 0 kts 313°
2026-05-07 19:00 51.89120 0.25336 352 ft 10 kts 313°
2026-05-07 19:00 51.89125 0.25218 352 ft 14 kts 237°
2026-05-07 19:00 51.89016 0.25041 348 ft 30 kts 221°
2026-05-07 19:01 51.88860 0.24801 348 ft 31 kts 222°
2026-05-07 19:01 51.88704 0.24572 354 ft 29 kts 223°
2026-05-07 19:01 51.88558 0.24354 348 ft 28 kts 224°
2026-05-07 19:01 51.88422 0.24149 350 ft 26 kts 224°
2026-05-07 19:02 51.88296 0.23958 352 ft 24 kts 222°
2026-05-07 19:02 51.88177 0.23781 348 ft 23 kts 224°
2026-05-07 19:02 51.88062 0.23612 348 ft 22 kts 213°
2026-05-07 19:02 51.87966 0.23464 352 ft 19 kts 224°
2026-05-07 19:03 51.87874 0.23322 354 ft 18 kts 222°
2026-05-07 19:03 51.87783 0.23188 348 ft 17 kts 222°
2026-05-07 19:03 51.87736 0.23030 355 ft 17 kts 298°
2026-05-07 19:03 51.87791 0.22917 352 ft 6 kts 281°
2026-05-07 19:04 51.87748 0.22844 348 ft 13 kts 222°
2026-05-07 19:04 51.87651 0.22692 350 ft 25 kts 223°
2026-05-07 19:04 51.87492 0.22456 344 ft 36 kts 222°
2026-05-07 19:04 51.87425 0.22166 330 ft 17 kts 309°
2026-05-07 19:05 51.87435 0.22145 333 ft 0 kts 316°
2026-05-07 19:05 51.87437 0.22142 333 ft 3 kts 315°
2026-05-07 19:05 51.87496 0.22042 332 ft 12 kts 313°
2026-05-07 19:05 51.87524 0.22013 332 ft 4 kts 13°
2026-05-07 19:06 51.87554 0.22057 333 ft 10 kts 42°
2026-05-07 19:06 51.87966 0.22682 348 ft 97 kts 43°
2026-05-07 19:06 51.88230 0.23067 345 ft 1 kts 39°
2026-05-07 19:07 51.88239 0.23080 345 ft 10 kts 41°
2026-05-07 19:07 51.88310 0.23189 345 ft 10 kts 44°
2026-05-07 19:07 51.88312 0.23311 354 ft 13 kts 111°
2026-05-07 19:07 51.88254 0.23484 348 ft 22 kts 135°
2026-05-07 19:08 51.88171 0.23472 348 ft 20 kts 222°
2026-05-07 19:08 51.88067 0.23315 348 ft 22 kts 223°
2026-05-07 19:08 51.87932 0.23113 351 ft 30 kts 222°
2026-05-07 19:08 51.87764 0.22853 355 ft 37 kts 222°
2026-05-07 19:09 51.87569 0.22570 354 ft 38 kts 222°
2026-05-07 19:09 51.87409 0.22313 336 ft 23 kts 246°
2026-05-07 19:09 51.87405 0.22249 336 ft 0 kts 272°
2026-05-07 19:09 51.87406 0.22236 333 ft 3 kts 278°
2026-05-07 19:10 51.87418 0.22185 332 ft 7 kts 296°
2026-05-07 19:10 51.87436 0.22145 331 ft 0 kts 311°
2026-05-07 19:11 51.87463 0.22098 328 ft 14 kts 313°
2026-05-07 19:12 51.87517 0.22010 332 ft 7 kts 337°
2026-05-07 19:12 51.87528 0.22020 332 ft 0 kts 45°
2026-05-07 19:14 51.87574 0.22091 334 ft 32 kts 43°
2026-05-07 19:15 51.87954 0.22663 350 ft 114 kts 43°
2026-05-07 19:15 51.88689 0.23772 449 ft 170 kts 46°
2026-05-07 19:15 51.89587 0.25086 1414 ft 172 kts 47°
2026-05-07 19:15 51.90474 0.26379 2446 ft 172 kts 47°
2026-05-07 19:16 51.91402 0.27792 2944 ft 202 kts 45°
2026-05-07 19:16 51.92499 0.29321 3589 ft 212 kts 32°
2026-05-07 19:16 51.93899 0.29990 4363 ft 210 kts 358°
2026-05-07 19:16 51.95301 0.29460 4867 ft 208 kts 329°
2026-05-07 19:17 51.96340 0.27876 5323 ft 212 kts 302°
2026-05-07 19:17 51.96906 0.25532 5561 ft 237 kts 283°
2026-05-07 19:17 51.97233 0.22785 5837 ft 257 kts 279°
2026-05-07 19:17 51.97530 0.19899 6451 ft 262 kts 279°
2026-05-07 19:18 51.97825 0.16955 7147 ft 266 kts 279°
2026-05-07 19:18 51.98139 0.13945 7828 ft 272 kts 279°
2026-05-07 19:18 51.98459 0.10970 8053 ft 270 kts 279°
2026-05-07 19:18 51.98787 0.07953 8068 ft 272 kts 278°
2026-05-07 19:19 51.98874 0.04926 8067 ft 268 kts 260°
2026-05-07 19:19 51.98479 0.01958 8080 ft 272 kts 257°
2026-05-07 19:19 51.98074 -0.01051 8071 ft 273 kts 257°
2026-05-07 19:19 51.97678 -0.04077 8057 ft 274 kts 257°
2026-05-07 19:20 51.97290 -0.07090 8054 ft 273 kts 257°
2026-05-07 19:20 51.96901 -0.10092 8056 ft 272 kts 257°
2026-05-07 19:20 51.96507 -0.13116 8328 ft 277 kts 257°
2026-05-07 19:20 51.96108 -0.16171 9345 ft 277 kts 257°
2026-05-07 19:21 51.95707 -0.19240 10311 ft 279 kts 257°
2026-05-07 19:21 51.95302 -0.22338 11159 ft 283 kts 257°
2026-05-07 19:21 51.94888 -0.25488 12030 ft 288 kts 256°
2026-05-07 19:21 51.94462 -0.28675 12931 ft 292 kts 256°
2026-05-07 19:22 51.94013 -0.31909 13826 ft 298 kts 255°
2026-05-07 19:22 51.93534 -0.35315 14100 ft 324 kts 255°